Nashville, TN

4:39 AM CST on December 14, 2019 (GMT -0600)
Nashville International

Weather History for KBNA - October, 2019

Change the Weather History Date:

Tuesday, October 8, 2019

  Actual Average Record
Temperature  
Mean Temperature 66 °F 63 °F  
Max Temperature 77 °F 74 °F 91 °F (1939)
Min Temperature 55 °F 52 °F 30 °F (1889)
Degree Days  
Heating Degree Days 0    
Month to date heating degree days 3  
Since 1 July heating degree days 3  
Cooling Degree Days 1    
Month to date cooling degree days 87  
Year to date cooling degree days 2258  
Growing Degree Days 16 (Base 50)    
Moisture  
Dew Point 52 °F    
Average Humidity 73    
Maximum Humidity 86    
Minimum Humidity 46    
Precipitation  
Precipitation 0.00 in 0.09 in 2.93 in (1959)
Month to date precipitation 2.19 0.80  
Year to date precipitation 49.61 36.46  
Sea Level Pressure  
Sea Level Pressure 30.12 in    
Wind  
Wind Speed 7 mph ()    
Max Wind Speed 14 mph    
Max Gust Speed 17 mph    
Visibility 10.0 miles    
Events      
T = Trace of Precipitation, MM = Missing Value Source: Averaged Metar Reports

Daily Weather History Graph

Daily Weather History Graph

Search for Another Location

Airport or City:

Astronomy

Oct. 08, 2019 Rise Set
Actual Time 6:47 AM CDT 6:20 PM CDT
Civil Twilight 6:21 AM CDT 6:46 PM CDT
Nautical Twilight 5:51 AM CDT 7:15 PM CDT
Astronomical Twilight 5:22 AM CDT 7:45 PM CDT
Moon 4:08 PM CDT (10/8) 1:48 AM CDT (10/8)
Length of Visible Light 12h 24m
Length of Day
11h 33m
Waxing Gibbous, 78% of the Moon is Illuminated
Oct 8
Waxing Gibbous
Oct 13
Full
Oct 21
Last Quarter
Oct 27
New
Nov 4
First Quarter

Hourly Weather History & Observations

Time (CDT) Temp. Dew Point Humidity Pressure Visibility Wind Dir Wind Speed Gust Speed Precip Events Conditions
12:53 AM 55.9 °F 50.0 °F 80% 30.16 in 10.0 mi NE 9.2 mph - N/A   Mostly Cloudy
1:13 AM 55.9 °F 50.0 °F 80% 30.16 in 10.0 mi NE 9.2 mph - N/A   Overcast
1:53 AM 57.0 °F 51.1 °F 81% 30.15 in 10.0 mi NNE 9.2 mph - N/A   Overcast
2:53 AM 55.9 °F 51.1 °F 84% 30.13 in 10.0 mi NNE 8.1 mph - N/A   Overcast
3:53 AM 55.9 °F 51.1 °F 84% 30.13 in 10.0 mi North 9.2 mph - N/A   Overcast
4:53 AM 55.9 °F 50.0 °F 80% 30.14 in 10.0 mi NE 11.5 mph - N/A   Overcast
5:32 AM 55.9 °F 51.1 °F 84% 30.14 in 10.0 mi NE 10.4 mph - N/A   Overcast
5:53 AM 55.9 °F 51.1 °F 84% 30.14 in 10.0 mi NE 11.5 mph - N/A   Overcast
6:53 AM 55.9 °F 51.1 °F 84% 30.14 in 10.0 mi NE 8.1 mph - N/A   Overcast
7:53 AM 57.0 °F 52.0 °F 83% 30.14 in 10.0 mi NE 9.2 mph - N/A   Overcast
8:53 AM 57.9 °F 52.0 °F 81% 30.16 in 10.0 mi NNE 8.1 mph - N/A   Overcast
9:53 AM 57.9 °F 52.0 °F 81% 30.16 in 10.0 mi North 8.1 mph - N/A   Overcast
10:53 AM 59.0 °F 53.1 °F 81% 30.17 in 10.0 mi NNE 6.9 mph - N/A   Overcast
11:53 AM 60.1 °F 53.1 °F 78% 30.15 in 10.0 mi Variable 4.6 mph - N/A   Overcast
12:53 PM 64.9 °F 54.0 °F 68% 30.12 in 10.0 mi East 4.6 mph - N/A   Scattered Clouds
1:53 PM 70.0 °F 55.0 °F 59% 30.10 in 10.0 mi Variable 4.6 mph - N/A   Partly Cloudy
3:53 PM 75.0 °F 55.0 °F 50% 30.06 in 10.0 mi North 5.8 mph - N/A   Scattered Clouds
4:53 PM 75.0 °F 54.0 °F 48% 30.06 in 10.0 mi North 5.8 mph - N/A   Scattered Clouds
5:53 PM 73.0 °F 54.0 °F 51% 30.07 in 10.0 mi North 9.2 mph - N/A   Scattered Clouds
6:53 PM 69.1 °F 55.0 °F 61% 30.08 in 10.0 mi North 8.1 mph - N/A   Scattered Clouds
7:53 PM 66.0 °F 54.0 °F 65% 30.08 in 10.0 mi NNE 9.2 mph - N/A   Clear
8:53 PM 64.0 °F 53.1 °F 67% 30.09 in 10.0 mi NE 5.8 mph - N/A   Clear
9:53 PM 63.0 °F 52.0 °F 67% 30.09 in 10.0 mi NE 6.9 mph - N/A   Clear
10:53 PM 61.0 °F 51.1 °F 70% 30.09 in 10.0 mi NE 4.6 mph - N/A   Clear
11:53 PM 60.1 °F 51.1 °F 72% 30.08 in 10.0 mi NE 6.9 mph - N/A   Clear